Clinton, OK

1:21 AM CDT on April 26, 2018 (GMT -0500)
Clinton Municipal

Weather History for KCLK - October, 2014

Change the Weather History Date:

Tuesday, October 28, 2014

  Actual Average (KCSM) Record (KCSM)
Temperature  
Mean Temperature 54 °F -  
Max Temperature 64 °F 64 °F 88 °F (2016)
Min Temperature 44 °F 45 °F 26 °F (2017)
Degree Days  
Heating Degree Days 11    
Growing Degree Days 4 (Base 50)    
Moisture  
Dew Point 34 °F    
Average Humidity 47    
Maximum Humidity 76    
Minimum Humidity 26    
Precipitation  
Precipitation 0.00 in - - ()
Sea Level Pressure  
Sea Level Pressure 30.14 in    
Wind  
Wind Speed 11 mph (NNE)    
Max Wind Speed 22 mph    
Max Gust Speed 28 mph    
Visibility 10 miles    
Events      
Averages and records for this station are not official NWS values.
T = Trace of Precipitation, MM = Missing Value Source: NWS Daily Summary

Daily Weather History Graph

Daily Weather History Graph

Search for Another Location

Airport or City:

Astronomy

Oct. 28, 2014 Rise Set
Actual Time 7:53 AM CDT 6:44 PM CDT
Civil Twilight 7:27 AM CDT 7:10 PM CDT
Nautical Twilight 6:57 AM CDT 7:40 PM CDT
Astronomical Twilight 6:27 AM CDT 8:10 PM CDT
Moon 12:20 PM CDT (10/28) 10:55 PM CDT (10/28)
Length of Visible Light 11h 43m
Length of Day
10h 50m
Waxing Crescent, 24% of the Moon is Illuminated
Oct 28
Waxing Crescent
Oct 30
First Quarter
Nov 6
Full
Nov 14
Last Quarter
Nov 22
New

Hourly Weather History & Observations

Time (CDT) Temp. Windchill Dew Point Humidity Pressure Visibility Wind Dir Wind Speed Gust Speed Precip Events Conditions
12:15 AM 60.8 °F - 37.4 °F 42% 29.97 in 10.0 mi North 16.1 mph - N/A   Mostly Cloudy
12:35 AM 59.0 °F - 37.4 °F 45% 29.98 in 10.0 mi North 19.6 mph 24.2 mph N/A   Mostly Cloudy
12:55 AM 59.0 °F - 35.6 °F 42% 30.00 in 10.0 mi North 19.6 mph 25.3 mph N/A   Scattered Clouds
1:15 AM 59.0 °F - 33.8 °F 39% 30.00 in 10.0 mi NNE 18.4 mph - N/A   Scattered Clouds
1:35 AM 59.0 °F - 33.8 °F 39% 30.02 in 10.0 mi NNE 21.9 mph 27.6 mph N/A   Scattered Clouds
1:55 AM 57.2 °F - 33.8 °F 41% 30.02 in 10.0 mi NNE 19.6 mph 25.3 mph N/A   Scattered Clouds
2:15 AM 55.4 °F - 33.8 °F 44% 30.03 in 10.0 mi NNE 17.3 mph 25.3 mph N/A   Scattered Clouds
2:35 AM 55.4 °F - 33.8 °F 44% 30.04 in 10.0 mi NNE 16.1 mph 24.2 mph N/A   Clear
2:55 AM 55.4 °F - 33.8 °F 44% 30.05 in 10.0 mi NNE 19.6 mph 25.3 mph N/A   Clear
3:15 AM 55.4 °F - 33.8 °F 44% 30.05 in 10.0 mi NNE 19.6 mph 26.5 mph N/A   Clear
3:35 AM 53.6 °F - 33.8 °F 47% 30.05 in 10.0 mi NNE 16.1 mph - N/A   Clear
3:55 AM 53.6 °F - 35.6 °F 51% 30.05 in 10.0 mi NNE 15.0 mph - N/A   Clear
4:15 AM 53.6 °F - 35.6 °F 51% 30.05 in 10.0 mi NNE 12.7 mph 18.4 mph N/A   Clear
4:35 AM 51.8 °F - 35.6 °F 54% 30.06 in 10.0 mi NNE 11.5 mph - N/A   Clear
4:55 AM 51.8 °F - 35.6 °F 54% 30.06 in 10.0 mi NNE 10.4 mph - N/A   Clear
5:15 AM 50.0 °F - 35.6 °F 58% 30.07 in 10.0 mi NNE 8.1 mph - N/A   Clear
5:35 AM 48.2 °F - 35.6 °F 62% 30.08 in 10.0 mi North 6.9 mph - N/A   Clear
5:55 AM 46.4 °F 44.3 °F 35.6 °F 66% 30.09 in 10.0 mi North 4.6 mph - N/A   Clear
6:15 AM 46.4 °F 45.2 °F 35.6 °F 66% 30.10 in 10.0 mi NNW 3.5 mph - N/A   Clear
6:35 AM 46.4 °F 44.3 °F 35.6 °F 66% 30.10 in 10.0 mi NNW 4.6 mph - N/A   Clear
6:55 AM 46.4 °F 44.3 °F 35.6 °F 66% 30.10 in 10.0 mi NNW 4.6 mph - N/A   Clear
7:15 AM 44.6 °F 42.2 °F 35.6 °F 71% 30.11 in 10.0 mi NNW 4.6 mph - N/A   Clear
7:35 AM 44.6 °F 43.1 °F 35.6 °F 71% 30.12 in 10.0 mi NNW 3.5 mph - N/A   Clear
7:55 AM 44.6 °F 43.1 °F 35.6 °F 71% 30.13 in 10.0 mi NNW 3.5 mph - N/A   Clear
8:15 AM 44.6 °F 42.2 °F 35.6 °F 71% 30.13 in 10.0 mi NNW 4.6 mph - N/A   Clear
8:35 AM 44.6 °F 43.1 °F 37.4 °F 76% 30.14 in 10.0 mi NW 3.5 mph - N/A   Clear
8:55 AM 44.6 °F - 37.4 °F 76% 30.15 in 10.0 mi Calm Calm - N/A   Clear
9:15 AM 48.2 °F - 37.4 °F 66% 30.16 in 10.0 mi NNW 6.9 mph - N/A   Clear
9:35 AM 51.8 °F - 37.4 °F 58% 30.18 in 10.0 mi NNE 4.6 mph - N/A   Clear
9:55 AM 55.4 °F - 35.6 °F 47% 30.18 in 10.0 mi NE 10.4 mph - N/A   Clear
10:15 AM 55.4 °F - 35.6 °F 47% 30.18 in 10.0 mi NNE 10.4 mph - N/A   Clear
10:35 AM 59.0 °F - 33.8 °F 39% 30.19 in 10.0 mi NE 10.4 mph - N/A   Clear
10:55 AM 59.0 °F - 33.8 °F 39% 30.20 in 10.0 mi NNE 11.5 mph - N/A   Clear
11:15 AM 60.8 °F - 33.8 °F 36% 30.20 in 10.0 mi NNE 11.5 mph - N/A   Clear
11:35 AM 60.8 °F - 32.0 °F 34% 30.20 in 10.0 mi NE 12.7 mph - N/A   Clear
11:55 AM 60.8 °F - 32.0 °F 34% 30.20 in 10.0 mi NNE 11.5 mph - N/A   Clear
12:15 PM 60.8 °F - 32.0 °F 34% 30.19 in 10.0 mi NNE 12.7 mph - N/A   Clear
12:35 PM 62.6 °F - 32.0 °F 32% 30.20 in 10.0 mi NE 9.2 mph - N/A   Clear
12:55 PM 62.6 °F - 30.2 °F 30% 30.19 in 10.0 mi NE 10.4 mph 16.1 mph N/A   Clear
1:15 PM 60.8 °F - 30.2 °F 31% 30.19 in 10.0 mi ENE 10.4 mph - N/A   Clear
1:35 PM 62.6 °F - 32.0 °F 32% 30.18 in 10.0 mi NNE 10.4 mph - N/A   Clear
1:55 PM 64.4 °F - 32.0 °F 30% 30.17 in 10.0 mi NNE 6.9 mph - N/A   Clear
2:15 PM 64.4 °F - 30.2 °F 28% 30.16 in 10.0 mi NE 6.9 mph - N/A   Clear
2:35 PM 64.4 °F - 30.2 °F 28% 30.15 in 10.0 mi NNE 6.9 mph - N/A   Clear
2:55 PM 62.6 °F - 30.2 °F 30% 30.16 in 10.0 mi NNE 5.8 mph - N/A   Clear
3:15 PM 64.4 °F - 30.2 °F 28% 30.15 in 10.0 mi NNE 9.2 mph - N/A   Clear
3:35 PM 62.6 °F - 30.2 °F 30% 30.15 in 10.0 mi NNE 9.2 mph - N/A   Clear
3:55 PM 64.4 °F - 28.4 °F 26% 30.15 in 10.0 mi NE 6.9 mph - N/A   Clear
4:15 PM 64.4 °F - 30.2 °F 28% 30.15 in 10.0 mi NE 6.9 mph - N/A   Clear
4:35 PM 64.4 °F - 30.2 °F 28% 30.14 in 10.0 mi NE 6.9 mph - N/A   Clear
4:55 PM 64.4 °F - 30.2 °F 28% 30.15 in 10.0 mi ENE 6.9 mph - N/A   Clear
5:15 PM 62.6 °F - 30.2 °F 30% 30.15 in 10.0 mi NE 9.2 mph - N/A   Clear
5:35 PM 64.4 °F - 30.2 °F 28% 30.15 in 10.0 mi NE 9.2 mph - N/A   Clear
5:55 PM 62.6 °F - 30.2 °F 30% 30.15 in 10.0 mi ENE 6.9 mph - N/A   Clear
6:15 PM 62.6 °F - 30.2 °F 30% 30.16 in 10.0 mi NE 5.8 mph - N/A   Clear
6:35 PM 60.8 °F - 32.0 °F 34% 30.16 in 10.0 mi ENE 5.8 mph - N/A   Clear
6:55 PM 57.2 °F - 32.0 °F 38% 30.17 in 10.0 mi East 5.8 mph - N/A   Clear
7:15 PM 57.2 °F - 32.0 °F 38% 30.17 in 10.0 mi East 4.6 mph - N/A   Scattered Clouds
7:35 PM 57.2 °F - 32.0 °F 38% 30.18 in 10.0 mi East 4.6 mph - N/A   Scattered Clouds
7:55 PM 55.4 °F - 33.8 °F 44% 30.18 in 10.0 mi East 5.8 mph - N/A   Scattered Clouds
8:15 PM 53.6 °F - 35.6 °F 51% 30.19 in 10.0 mi East 5.8 mph - N/A   Scattered Clouds
8:35 PM 53.6 °F - 35.6 °F 51% 30.20 in 10.0 mi East 6.9 mph - N/A   Scattered Clouds
8:55 PM 51.8 °F - 35.6 °F 54% 30.19 in 10.0 mi East 6.9 mph - N/A   Scattered Clouds
9:15 PM 51.8 °F - 35.6 °F 54% 30.20 in 10.0 mi East 6.9 mph - N/A   Clear
9:35 PM 50.0 °F - 35.6 °F 58% 30.20 in 10.0 mi ENE 5.8 mph - N/A   Clear
9:55 PM 50.0 °F - 35.6 °F 58% 30.21 in 10.0 mi East 5.8 mph - N/A   Clear
10:15 PM 48.2 °F - 35.6 °F 62% 30.22 in 10.0 mi Calm Calm - N/A   Clear
10:35 PM 50.0 °F - 35.6 °F 58% 30.22 in 10.0 mi Calm Calm - N/A   Clear
10:55 PM 46.4 °F 43.5 °F 35.6 °F 66% 30.22 in 10.0 mi North 5.8 mph - N/A   Clear
11:15 PM 44.6 °F 43.1 °F 35.6 °F 71% 30.22 in 10.0 mi NNW 3.5 mph - N/A   Clear
11:35 PM 46.4 °F - 35.6 °F 66% 30.22 in 10.0 mi Calm Calm - N/A   Clear
11:55 PM 46.4 °F - 35.6 °F 66% 30.22 in 10.0 mi Calm Calm - N/A   Clear